Regional Weather Roundup
Issued by NWS

Home | Current Version | Previous Version | Text Only | Print | Product List | Glossary On
Versions: 1 2 3 4 5 6 7 8 9 10 11 12 13 14 15 16 17 18 19 20 21 22 23 24 25 26 27 28 29 30 31 32 33 34 35 36 37 38 39 40 41 42 43 44 45 46 47 48 49 50
000
ASUS44 KBMX 270410
RWRAL

ALABAMA REGIONAL WEATHER ROUNDUP
NATIONAL WEATHER SERVICE BIRMINGHAM AL
1100 PM CDT WED APR 26 2017

NOTE: "FAIR" INDICATES FEW OR NO CLOUDS BELOW 12,000 FEET
WITH NO SIGNIFICANT WEATHER AND/OR OBSTRUCTIONS TO VISIBILITY.

THE REMARK "TC" DENOTES TEMPERATURE IN DEGREES CELSIUS.

ALZ001>011-014-016>018-020-270500-
NORTH ALABAMA

CITY           SKY/WX    TMP DP  RH WIND       PRES   REMARKS
MUSCLE SHOALS  CLOUDY    75  57  53 S18G29    29.64R
HUNTSVILLE     MOCLDY    73  60  63 S15G25    29.67R
DECATUR        PTCLDY    72  59  63 S20G28    29.66R
HALEYVILLE     MOCLDY    71  59  65 S12       29.70R
GADSDEN        CLOUDY    72  59  63 S7G16     29.74R
$$

ALZ012-013-022-023-030>036-040>044-270500-
WEST CENTRAL ALABAMA

CITY           SKY/WX    TMP DP  RH WIND       PRES   REMARKS
TUSCALOOSA     MOCLDY    73  60  63 S13G22    29.68R
$$

ALZ015-024>027-033>036-040>044-270500-
CENTRAL ALABAMA

CITY           SKY/WX    TMP DP  RH WIND       PRES   REMARKS
BIRMINGHAM     PTCLDY    73  55  53 S10G23    29.74S
MONTGOMERY     CLEAR     71  58  63 SE8       29.77S
SHELBY CO ARPT CLOUDY    72  58  61 S12       29.73S
MAXWELL AFB    CLEAR     69  59  69 S12       29.76S
GREENVILLE     MOCLDY    70  61  73 VRB7      29.77F
$$

ALZ019-021-028-029-037-038-045>048-270500-
EAST CENTRAL ALABAMA

CITY           SKY/WX    TMP DP  RH WIND       PRES   REMARKS
ANNISTON       CLEAR     72  57  59 S5        29.75F
ALEXANDER CITY CLEAR     71  55  58 S6        29.77F
AUBURN         CLEAR     68  56  65 S9        29.80F
$$

ALZ051>064-270500-
SOUTHWEST ALABAMA

CITY           SKY/WX    TMP DP  RH WIND       PRES   REMARKS
MOBILE         CLOUDY    74  69  85 SE18      29.72F
BROOKLEY FIELD CLOUDY    75  72  90 SE20G28   29.74F
EVERGREEN      CLOUDY    71  63  75 SE13      29.76F
$$

ALZ049-050-065>069-270500-
SOUTHEAST ALABAMA

CITY           SKY/WX    TMP DP  RH WIND       PRES   REMARKS
DOTHAN         MOCLDY    70  62  76 S10       29.86R
OZARK          CLOUDY    71  63  75 S8        29.82S
TROY           MOCLDY    69  62  78 S9        29.80S
EUFAULA        FAIR      71  57  61 S5        29.81S
$$



USA.gov is the U.S. government's official web portal to all federal, state and local government web resources and services.